カタログに戻る

FENGYUN 1C DEB

LostPO
NORAD 31745·DEBRIS·🇨🇳 China

打ち上げ May 10, 1999 から Taiyuan Satellite Launch Center

Loading…

次のパス (今後24時間)

TLE

古いSource: Space-Track

元期: Jul 5, 2023, 18:29 UTC

1 31745U 99025CEU 23186.77072995  .00004008  00000-0  13971-2 0  9996
2 31745  96.7372  10.8670 0455265 212.9182 144.2868 13.90372712182593

AllMySatでFENGYUN 1C DEBをリアルタイム追跡

Download on the App Store